IK3ZGB Weather Reports


Display with metric or nautical units.
time (UTC)temp
F
wind
direction
speed
MPH
gust
MPH
rain 1hr
in
rain 24hr
in
rain mn
in
humidity
%
barometer
mb
20260504220844 66 0.0 0.0 0.00 0.00 0.00 65 1016.5
20260504215843 66 0.0 0.0 0.00 0.00 0.00 64 1016.9
20260504214844 66 0.0 0.0 0.00 0.00 0.00 63 1016.9
20260504213844 66 0.0 0.0 0.00 0.00 0.00 63 1016.7
20260504212846 66 0.0 0.0 0.00 0.00 0.00 62 1016.9
20260504211845 66 0.0 0.0 0.00 0.00 0.00 62 1016.9
20260504210845 68 0.0 0.0 0.00 0.00 0.00 62 1016.8
20260504205845 67 0.0 0.0 0.00 0.00 0.00 62 1016.8
20260504204843 67 0.0 0.0 0.00 0.00 0.00 62 1016.7
20260504203843 68 0.0 0.0 0.00 0.00 0.00 62 1016.7
20260504202845 68 0.0 0.0 0.00 0.00 0.00 62 1016.5
20260504201845 68 0.0 0.0 0.00 0.00 0.00 62 1016.4
20260504200845 68 0.0 0.0 0.00 0.00 0.00 62 1016.5
20260504195845 68 0.0 0.0 0.00 0.00 0.00 61 1016.5
20260504194845 69 0.0 0.0 0.00 0.00 0.00 60 1016.3
20260504193845 70 0.0 0.0 0.00 0.00 0.00 61 1016.4
20260504192844 70 0.0 0.0 0.00 0.00 0.00 61 1016.1
20260504191846 69 0.0 0.0 0.00 0.00 0.00 61 1015.8
20260504190843 70 0.0 0.0 0.00 0.00 0.00 62 1015.7
20260504185845 70 0.0 0.0 0.00 0.00 0.00 61 1015.6
20260504184845 70 0.0 0.0 0.00 0.00 0.00 62 1015.5
20260504183843 71 0.0 0.0 0.00 0.00 0.00 63 1015.4
20260504182845 71 0.0 0.0 0.00 0.00 0.00 61 1015.1
20260504181844 72 0.0 0.0 0.00 0.00 0.00 61 1015.0
20260504180845 72 0.0 0.0 0.00 0.00 0.00 60 1015.2
20260504175845 73 0.0 0.0 0.00 0.00 0.00 59 1014.9
20260504174843 73 0.0 0.0 0.00 0.00 0.00 59 1014.8
20260504173843 73 0.0 0.0 0.00 0.00 0.00 59 1014.8
20260504172845 74 0.0 0.0 0.00 0.00 0.00 60 1014.7
20260504171844 74 0.0 0.0 0.00 0.00 0.00 60 1014.8
20260504170843 74 0.0 0.0 0.00 0.00 0.00 60 1014.9
20260504150845 78 0.0 0.0 0.00 0.00 0.00 50 1014.8
20260504140844 79 0.0 0.0 0.00 0.00 0.00 48 1015.7
20260504081844 74 0.0 0.0 0.00 0.00 0.00 53 1018.2
20260504080845 74 0.0 0.0 0.00 0.00 0.00 54 1018.5
20260504045845 63 0.0 0.0 0.00 0.00 0.00 68 1018.5
20260504044845 62 0.0 0.0 0.00 0.00 0.00 68 1018.4
20260504043844 61 0.0 0.0 0.00 0.00 0.00 69 1018.5
20260504042844 61 0.0 0.0 0.00 0.00 0.00 69 1018.2
20260504041844 60 0.0 0.0 0.00 0.00 0.00 70 1018.1
20260504040845 60 0.0 0.0 0.00 0.00 0.00 69 1018.1
20260504035846 60 0.0 0.0 0.00 0.00 0.00 69 1018.1
20260504034844 59 0.0 0.0 0.00 0.00 0.00 70 1018.1
20260504033845 59 0.0 0.0 0.00 0.00 0.00 70 1018.1
20260504032845 59 0.0 0.0 0.00 0.00 0.00 69 1017.9
20260504031845 60 0.0 0.0 0.00 0.00 0.00 69 1018.0
20260504030844 60 0.0 0.0 0.00 0.00 0.00 68 1018.1
20260504025844 61 0.0 0.0 0.00 0.00 0.00 68 1018.0
20260504024844 61 0.0 0.0 0.00 0.00 0.00 68 1018.2
20260504023846 61 0.0 0.0 0.00 0.00 0.00 68 1018.3
20260504022845 61 0.0 0.0 0.00 0.00 0.00 67 1018.3
20260504021845 61 0.0 0.0 0.00 0.00 0.00 67 1018.2
20260504020844 62 0.0 0.0 0.00 0.00 0.00 66 1018.2
20260504015845 62 0.0 0.0 0.00 0.00 0.00 66 1018.2
20260504014844 62 0.0 0.0 0.00 0.00 0.00 66 1017.7
20260504013845 61 0.0 0.0 0.00 0.00 0.00 66 1018.1
20260504012845 61 0.0 0.0 0.00 0.00 0.00 66 1018.0
20260504011844 62 0.0 0.0 0.00 0.00 0.00 65 1018.1
20260504010844 62 0.0 0.0 0.00 0.00 0.00 65 1018.1
20260504005845 62 0.0 0.0 0.00 0.00 0.00 66 1018.2
20260504004845 61 0.0 0.0 0.00 0.00 0.00 68 1017.9
20260504003844 61 0.0 0.0 0.00 0.00 0.00 68 1018.1
20260504002844 61 0.0 0.0 0.00 0.00 0.00 68 1018.3
20260504001844 61 0.0 0.0 0.00 0.00 0.00 68 1018.2
20260504000845 61 0.0 0.0 0.00 0.00 0.00 67 1018.2
20260503235845 62 0.0 0.0 0.00 0.00 0.00 66 1018.1
20260503234844 62 0.0 0.0 0.00 0.00 0.00 66 1018.3
20260503233845 62 0.0 0.0 0.00 0.00 0.00 66 1018.3
20260503232846 62 0.0 0.0 0.00 0.00 0.00 65 1018.4
20260503231846 63 0.0 0.0 0.00 0.00 0.00 65 1018.4
20260503230844 63 0.0 0.0 0.00 0.00 0.00 64 1018.3
20260503225844 63 0.0 0.0 0.00 0.00 0.00 64 1018.6
20260503224844 63 0.0 0.0 0.00 0.00 0.00 64 1018.1
20260503223844 63 0.0 0.0 0.00 0.00 0.00 64 1018.2
20260503222844 64 0.0 0.0 0.00 0.00 0.00 62 1018.4
20260503221846 64 0.0 0.0 0.00 0.00 0.00 61 1018.2